Regional Weather Roundup
Issued by NWS

Home | Current Version | Previous Version | Graphics & Text | Print | Product List | Glossary On
Versions: 1 2 3 4 5 6 7 8 9 10 11 12 13 14 15 16 17 18 19 20 21 22 23 24 25 26 27 28 29 30 31 32 33 34 35 36 37 38 39 40 41 42 43 44 45 46 47 48 49 50
000
ASUS43 KMKX 171021
RWRWI

WISCONSIN REGIONAL WEATHER ROUNDUP
NATIONAL WEATHER SERVICE MILWAUKEE/SULLIVAN WI
400 AM CST TUE JAN 17 2017

NOTE: "FAIR" INDICATES FEW OR NO CLOUDS BELOW 12,000 FEET WITH NO
SIGNIFICANT WEATHER AND/OR OBSTRUCTIONS TO VISIBILITY.

WIZ001-002-006>008-014>016-023>028-171100-
NORTHWEST WISCONSIN

CITY           SKY/WX    TMP DP  RH WIND       PRES   REMARKS
SUPERIOR ARPT  CLOUDY    19  16  89 CALM      29.99F
ASHLAND        CLOUDY    25  20  81 CALM      29.99F
HAYWARD        CLOUDY    30  22  72 NE5       29.95S WCI  25
SIREN          CLOUDY    29  23  76 CALM      29.96F
CUMBERLAND     LGT RAIN  32  32 100 N6        29.92S WCI  26
RICE LAKE      MIX PCPN  33  32  96 N8        29.92F WCI  26
CHETEK         MIX PCPN  32  32 100 CALM      29.91F
LADYSMITH      LGT RAIN  33  32  94 N8        29.92F WCI  27
EAU CLAIRE     LGT SNOW  33  32  96 NE3       29.89F FOG
MENOMONIE      LGT SNOW  33  33 100 CALM      29.90F
NEW RICHMOND   LGT RAIN  33  33 100 N5        29.92F WCI  28
OSCEOLA        LGT SNOW  31  31 100 N7        29.97S WCI  24
$$

WIZ003>005-009-010-017-018-171100-
NORTH CENTRAL WISCONSIN

CITY           SKY/WX    TMP DP  RH WIND       PRES   REMARKS
MANITOWISH WTR CLOUDY    26  25  95 CALM      29.92F
ARBOR VITAE    LGT SNOW  32  30  92 CALM      29.92F
WOODRUFF       LGT SNOW  32  30  92 CALM      29.92F
RHINELANDER    MIX PCPN  30  29  96 NE5       29.89F WCI  25
EAGLE RIVER    MIX PCPN  28  23  82 N5        29.91F WCI  22
LAND O LAKES   CLOUDY    26  22  85 CALM      29.95S
PHILLIPS       FLURRIES  31  31  99 NE6       29.90F WCI  25
TOMAHAWK       LGT SNOW  31  29  94 NE3       29.90F
MEDFORD        MIX PCPN  32  31  98 NE6       29.86F WCI  26
MERRILL        MIX PCPN  32  32 100 NE6         N/A  WCI  27
$$

WIZ029-030-035-036-043>047-171100-
CENTRAL WISCONSIN

CITY           SKY/WX    TMP DP  RH WIND       PRES   REMARKS
WAUSAU         LGT RAIN  33  32  96 NE3       29.85F FOG
MOSINEE        MIX PCPN  32  32 100 N6        29.87S WCI  26
MARSHFIELD     CLOUDY    33  31  92 NE10      29.84F FOG     WCI  25
STEVENS POINT  MIX PCPN  31  31 100 NE6       29.86S WCI  25
WAUPACA        DRIZZLE   34  33  94 CALM      29.86R
WAUTOMA        CLOUDY    33  32  96 NE7       29.85S WCI  27
WISC RAPIDS    CLOUDY    33  33 100 E7        29.86  FOG     WCI  27
CAMP DOUGLAS   CLOUDY    32  32 100 NW6       29.85R FOG     WCI  26
$$

WIZ011>013-019>022-031-037>040-048>050-171100-
NORTHEAST WISCONSIN

CITY           SKY/WX    TMP DP  RH WIND       PRES   REMARKS
ANTIGO         CLOUDY    32  31  99 NE10      29.86F WCI  23
SHAWANO        DRIZZLE   34  32  93 NE7       29.88F WCI  28
OCONTO         CLOUDY    32  31  96 NE7       29.89F WCI  26
STURGEON BAY   CLOUDY    35  34  96 NE12      29.88F FOG     WCI  27
GREEN BAY      LGT SNOW  34  33  96 NE18      29.85F FOG     WCI  23
MANITOWOC      CLOUDY    36  35  96 NE6       29.84F WCI  31
APPLETON       LGT RAIN  32  32 100 NE9       29.82F WCI  24
CLINTONVILLE   MIX PCPN  32  32 100 NE7       29.86F WCI  26
OSHKOSH        CLOUDY    33  32  96 NE12      29.82F FOG     WCI  24
$$

WIZ032>034-041-042-053>061-171100-
SOUTHWEST WISCONSIN

CITY           SKY/WX    TMP DP  RH WIND       PRES   REMARKS
LA CROSSE      CLOUDY    36  33  89 NW8       29.87S FOG     WCI  30
SPARTA         CLOUDY    32  32 100 NE3       29.87S FOG
VIROQUA        CLOUDY    32  32 100 CALM      29.83F VSB 1/2
BOSCOBEL       CLOUDY    34  33  96 CALM      29.85R FOG
PRAIRIE DU CHI FOG       33  32  97 CALM      29.86R VSB 3/4
PLATTEVILLE    CLOUDY    33  33 100 NW3       29.82S VSB 1/2
$$

WIZ056-057-062-063-064-067-068-171100-
SOUTH CENTRAL WISCONSIN

CITY           SKY/WX    TMP DP  RH WIND       PRES   REMARKS
REEDSBURG      CLOUDY    32  32 100 E3        29.83F
BARABOO/DELLS  FOG       32  32 100 NE3       29.82S VSB 1
LONE ROCK      CLOUDY    34  32  92 E3        29.83F FOG
MINERAL POINT  FOG       34  34 100 CALM      29.80S VSB 3/4
MADISON        LGT RAIN  33  33 100 N6        29.80F FOG     WCI  28
MIDDLETON      CLOUDY    35  35 100 NE3       29.81F
WATERTOWN      CLOUDY    34  34 100 N3        29.79F
MONROE         FOG       34  34 100 N8        29.79R VSB 1/4 WCI  27
JANESVILLE     FOG       36  36 100 N3        29.76F VSB 1
$$

WIZ051-052-058>065-066-070>072-171100-
SOUTHEAST WISCONSIN

CITY           SKY/WX    TMP DP  RH WIND       PRES   REMARKS
MILWAUKEE      FOG       37  35  92 N8        29.76F VSB 3/4 WCI  31
WAUKESHA       LGT RAIN  32  32 100 N7        29.77F WCI  26
MILWAUKEE/TIMM RAIN      36  32  87 N6        29.79F WCI  31
RACINE         RAIN      37  36  96 NE8       29.77F FOG     WCI  31
KENOSHA        LGT RAIN  37  37 100 N3        29.74F FOG
FOND DU LAC    LGT RAIN  34  32  92 NE10      29.82F FOG     WCI  26
SHEBOYGAN      LGT RAIN  35  34  96 N5        29.82F FOG     WCI  31
WEST BEND      LGT RAIN  34  34 100 NE6       29.80S WCI  29
JUNEAU         LGT RAIN  33  33  99 N5        29.82R VSB 1   WCI  29
$$

LSZ147-162-171100-
LAKE SUPERIOR

STATION/POSITION TIME  TEMP    WIND        PRES    WAVE
                       AIR SEA DIR/SP/G            HT/PER
                 (UTC) (F)     (DEG/KT/KT) (MB)    (FT/S)
DEVILS ISLAND    1000   34      20/  7/  8 1016.4F
PORT WING        0940   22     140/  2/  3 1015.9S
SAXON HARBOR     0940   26     200/  2/  3 1015.2F
$$

LMZ867-665-643>646-171100-
LAKE MICHIGAN

STATION/POSITION TIME  TEMP    WIND        PRES    WAVE
                       AIR SEA DIR/SP/G            HT/PER
                 (UTC) (F)     (DEG/KT/KT) (MB)    (FT/S)
NORTHPORT PIER   0940   35      50/ 11/ 14 1013.5F
SISTER BAY       0950   34      30/  7/ 12   N/A
ALGOMA LAKESHORE 0923           50/ 17/ 22   N/A
KEWAUNEE LAKESHO 0954   35      40/ 10/ 12 1010.6F
SHEBOYGAN LAKESH 1000   35      20/  5/  5 1010.2F
PORT WASHINGTON  0940   35      30/  7/  8 1010.5F
MILWAUKEE LAKESH 1000   36      10/  8/  9   N/A
KENOSHA   LAKESH 1000   35      10/ 13/ 15 1007.1
$$

TC  - TEMPERATURE IN CELSIUS
VSB - VISIBILITY IN STATUTE MILES
WCI - WIND CHILL INDEX
HX  - HEAT INDEX





USA.gov is the U.S. government's official web portal to all federal, state and local government web resources and services.